This is the latest recevied weather packets stored in our database for station/object IK5UIK-3. If no packets are shown the sender has not sent any weather packets the latest 10 day(s).
| Time | Temp. | Humidity | Pressure | Rain* | Wind** | Luminosity | Snow |
|---|---|---|---|---|---|---|---|
| 1787469522 | 20° C | 76% | 1013 hPa | 0 mm | - | - | - |
| 1787469162 | 20° C | 76% | 1013 hPa | 0 mm | - | - | - |
| 1787468987 | 20° C | 76% | 1012.9 hPa | 0 mm | - | - | - |
| 1787468802 | 20° C | 77% | 1013 hPa | 0 mm | - | - | - |
| 1787468690 | 19.44° C | 77% | 1013 hPa | 0 mm | - | - | - |
| 1787468442 | 19.44° C | 78% | 1013 hPa | 0 mm | - | - | - |
| 1787468082 | 18.89° C | 79% | 1013 hPa | 0 mm | - | - | - |
| 1787467785 | 18.89° C | 80% | 1013 hPa | 0 mm | - | - | - |
| 1787467722 | 18.33° C | 80% | 1013.1 hPa | 0 mm | - | - | - |
| 1787467489 | 18.33° C | 80% | 1013 hPa | 0 mm | - | - | - |
| 1787467362 | 17.78° C | 80% | 1013.1 hPa | 0 mm | - | - | - |
| 1787467002 | 17.78° C | 81% | 1013.1 hPa | 0 mm | - | - | - |
| 1787466888 | 17.78° C | 82% | 1013 hPa | 0 mm | - | - | - |
| 1787466642 | 17.22° C | 83% | 1013.2 hPa | 0 mm | - | - | - |
| 1787466282 | 17.22° C | 84% | 1013.2 hPa | 0 mm | - | - | - |
| 1787465922 | 16.67° C | 84% | 1013.2 hPa | 0 mm | - | - | - |
| 1787465685 | 16.67° C | 84% | 1013.2 hPa | 0 mm | - | - | - |
| 1787465562 | 16.67° C | 84% | 1013.3 hPa | 0 mm | - | - | - |
| 1787465390 | 16.11° C | 85% | 1013.1 hPa | 0 mm | - | - | - |
| 1787465202 | 16.11° C | 85% | 1013.2 hPa | 0 mm | - | - | - |
| 1787465089 | 15.56° C | 85% | 1013.3 hPa | 0 mm | - | - | - |
| 1787464842 | 15.56° C | 85% | 1013.3 hPa | 0 mm | - | - | - |
| 1787464785 | 15.56° C | 85% | 1013.3 hPa | 0 mm | - | - | - |
| 1787464482 | 15.56° C | 85% | 1013.3 hPa | 0 mm | - | - | - |
| 1787464185 | 15.56° C | 85% | 1013.2 hPa | 0 mm | - | - | - |
* Rain latest hour (hover to see other rain measurements)
** Current wind speed in m/s (hover to see current wind gust speed)